| time (UTC) | temp C | wind direction | speed KPH | gust KPH | rain 1hr cm | rain 24hr cm | rain mn cm | humidity % | barometer mb |
| 20260504012254 | 13 | 198 | 0.0 | 0.0 | 0.00 | 0.03 | 0.03 | 42 | 994.4 |
| 20260504011750 | 13 | 198 | 0.0 | 0.0 | 0.00 | 0.03 | 0.03 | 39 | 994.7 |
| 20260504011247 | 13 | 198 | 0.0 | 0.0 | 0.00 | 0.03 | 0.03 | 42 | 994.7 |
| 20260504010743 | 14 | 202 | 0.0 | 0.0 | 0.00 | 0.03 | 0.03 | 39 | 994.9 |
| 20260504010238 | 15 | 109 | 0.0 | 0.0 | 0.00 | 0.03 | 0.03 | 39 | 995.2 |
| 20260504005736 | 15 | 92 | 0.0 | 0.0 | 0.00 | 0.03 | 0.03 | 38 | 995.3 |
| 20260504005233 | 15 | 90 | 0.0 | 0.0 | 0.00 | 0.03 | 0.03 | 40 | 995.3 |
| 20260504004730 | 15 | 320 | 1.6 | 1.6 | 0.00 | 0.03 | 0.03 | 38 | 995.5 |
| 20260504004227 | 15 | 221 | 0.0 | 1.6 | 0.00 | 0.03 | 0.03 | 35 | 995.4 |
| 20260504003724 | 16 | 155 | 0.0 | 1.6 | 0.00 | 0.03 | 0.03 | 35 | 995.5 |
| 20260504003221 | 16 | 221 | 0.0 | 0.0 | 0.00 | 0.03 | 0.03 | 36 | 995.7 |
| 20260504002717 | 16 | 269 | 1.6 | 1.6 | 0.00 | 0.03 | 0.03 | 33 | 995.8 |
| 20260504002214 | 16 | 241 | 0.0 | 0.0 | 0.00 | 0.03 | 0.03 | 35 | 996.0 |
| 20260504001712 | 16 | 202 | 0.0 | 0.0 | 0.00 | 0.03 | 0.03 | 34 | 996.1 |
| 20260504001209 | 16 | 198 | 1.6 | 1.6 | 0.00 | 0.03 | 0.03 | 33 | 996.2 |
| 20260504000706 | 16 | 230 | 0.0 | 0.0 | 0.00 | 0.03 | 0.03 | 35 | 996.2 |
| 20260504000204 | 16 | 296 | 1.6 | 1.6 | 0.00 | 0.03 | 0.03 | 34 | 996.4 |
| 20260503235701 | 16 | 283 | 0.0 | 1.6 | 0.00 | 0.03 | 0.03 | 35 | 996.4 |
| 20260503235157 | 16 | 123 | 1.6 | 1.6 | 0.00 | 0.03 | 0.03 | 36 | 996.4 |
| 20260503234655 | 16 | 274 | 1.6 | 1.6 | 0.00 | 0.03 | 0.03 | 33 | 996.6 |
| 20260503234154 | 17 | 245 | 0.0 | 0.0 | 0.00 | 0.03 | 0.03 | 34 | 997.1 |
| 20260503233650 | 17 | 187 | 3.2 | 6.4 | 0.00 | 0.03 | 0.03 | 32 | 996.8 |
| 20260503233145 | 17 | 217 | 0.0 | 0.0 | 0.00 | 0.03 | 0.03 | 32 | 996.9 |
| 20260503232642 | 17 | 261 | 0.0 | 0.0 | 0.00 | 0.03 | 0.03 | 32 | 996.9 |
| 20260503232139 | 17 | 228 | 1.6 | 1.6 | 0.00 | 0.03 | 0.03 | 31 | 996.9 |
| 20260503231638 | 17 | 262 | 1.6 | 3.2 | 0.00 | 0.03 | 0.03 | 30 | 997.0 |
| 20260503231133 | 17 | 225 | 1.6 | 1.6 | 0.00 | 0.03 | 0.03 | 31 | 997.2 |
| 20260503230631 | 17 | 224 | 4.8 | 9.7 | 0.00 | 0.03 | 0.03 | 31 | 997.2 |
| 20260503230128 | 18 | 278 | 1.6 | 3.2 | 0.00 | 0.03 | 0.03 | 31 | 997.3 |
| 20260503225625 | 18 | 281 | 11.3 | 12.9 | 0.00 | 0.03 | 0.03 | 31 | 997.3 |
| 20260503225125 | 18 | 285 | 3.2 | 4.8 | 0.00 | 0.03 | 0.03 | 31 | 997.8 |
| 20260503224622 | 18 | 331 | 1.6 | 4.8 | 0.00 | 0.03 | 0.03 | 32 | 997.6 |
| 20260503224120 | 18 | 297 | 0.0 | 1.6 | 0.00 | 0.03 | 0.03 | 31 | 997.7 |
| 20260503223618 | 17 | 243 | 0.0 | 1.6 | 0.00 | 0.03 | 0.03 | 32 | 997.8 |
| 20260503223114 | 17 | 272 | 0.0 | 1.6 | 0.00 | 0.03 | 0.03 | 32 | 997.9 |
| 20260503222612 | 17 | 224 | 1.6 | 3.2 | 0.00 | 0.03 | 0.03 | 31 | 997.9 |
| 20260503222109 | 17 | 197 | 3.2 | 4.8 | 0.00 | 0.03 | 0.03 | 31 | 998.0 |
| 20260503221607 | 17 | 226 | 3.2 | 3.2 | 0.00 | 0.03 | 0.03 | 31 | 998.0 |
| 20260503221104 | 17 | 347 | 1.6 | 3.2 | 0.00 | 0.03 | 0.03 | 31 | 998.0 |
| 20260503220600 | 17 | 170 | 0.0 | 1.6 | 0.00 | 0.03 | 0.03 | 33 | 998.2 |
| 20260503220057 | 17 | 254 | 0.0 | 1.6 | 0.00 | 0.03 | 0.03 | 33 | 998.3 |
| 20260503215554 | 17 | 222 | 3.2 | 3.2 | 0.00 | 0.03 | 0.03 | 33 | 998.2 |
| 20260503215051 | 17 | 289 | 4.8 | 6.4 | 0.00 | 0.03 | 0.03 | 33 | 998.2 |
| 20260503214549 | 17 | 350 | 0.0 | 0.0 | 0.00 | 0.03 | 0.03 | 33 | 998.3 |
| 20260503214046 | 17 | 37 | 4.8 | 6.4 | 0.00 | 0.03 | 0.03 | 32 | 998.2 |
| 20260503213545 | 17 | 229 | 8.0 | 9.7 | 0.00 | 0.03 | 0.03 | 31 | 998.5 |
| 20260503213041 | 17 | 285 | 4.8 | 4.8 | 0.00 | 0.03 | 0.03 | 30 | 998.4 |
| 20260503212538 | 17 | 334 | 4.8 | 4.8 | 0.00 | 0.03 | 0.03 | 32 | 998.5 |
| 20260503212036 | 17 | 7 | 6.4 | 6.4 | 0.00 | 0.03 | 0.03 | 32 | 998.6 |
| 20260503211533 | 17 | 257 | 3.2 | 3.2 | 0.00 | 0.03 | 0.03 | 31 | 998.7 |
| 20260503211028 | 17 | 301 | 3.2 | 6.4 | 0.00 | 0.03 | 0.03 | 31 | 998.8 |
| 20260503210525 | 16 | 292 | 6.4 | 6.4 | 0.00 | 0.03 | 0.03 | 33 | 998.7 |
| 20260503210021 | 16 | 325 | 4.8 | 6.4 | 0.00 | 0.03 | 0.03 | 31 | 998.7 |
| 20260503205518 | 17 | 285 | 6.4 | 6.4 | 0.00 | 0.03 | 0.03 | 31 | 998.9 |
| 20260503205014 | 16 | 42 | 6.4 | 9.7 | 0.00 | 0.03 | 0.03 | 31 | 999.0 |
| 20260503204511 | 16 | 246 | 3.2 | 4.8 | 0.00 | 0.03 | 0.03 | 35 | 998.9 |
| 20260503204008 | 16 | 319 | 4.8 | 9.7 | 0.00 | 0.03 | 0.03 | 32 | 999.2 |
| 20260503203505 | 16 | 323 | 3.2 | 4.8 | 0.00 | 0.03 | 0.03 | 33 | 999.0 |
| 20260503203002 | 17 | 242 | 0.0 | 1.6 | 0.00 | 0.03 | 0.03 | 34 | 999.2 |
| 20260503202500 | 16 | 241 | 3.2 | 3.2 | 0.00 | 0.03 | 0.03 | 33 | 999.2 |
| 20260503201958 | 16 | 291 | 1.6 | 3.2 | 0.00 | 0.03 | 0.03 | 33 | 999.3 |
| 20260503201455 | 16 | 298 | 3.2 | 4.8 | 0.00 | 0.03 | 0.03 | 33 | 999.2 |
| 20260503200953 | 17 | 336 | 1.6 | 3.2 | 0.00 | 0.03 | 0.03 | 33 | 999.5 |
| 20260503200449 | 16 | 272 | 4.8 | 6.4 | 0.00 | 0.03 | 0.03 | 32 | 999.2 |
| 20260503195946 | 17 | 219 | 3.2 | 4.8 | 0.00 | 0.03 | 0.03 | 33 | 999.5 |
| 20260503195443 | 16 | 276 | 1.6 | 4.8 | 0.00 | 0.03 | 0.03 | 35 | 999.6 |
| 20260503194939 | 16 | 5 | 4.8 | 4.8 | 0.00 | 0.03 | 0.03 | 33 | 999.5 |
| 20260503194437 | 16 | 302 | 1.6 | 1.6 | 0.00 | 0.03 | 0.03 | 34 | 999.4 |
| 20260503193932 | 16 | 220 | 3.2 | 6.4 | 0.00 | 0.03 | 0.03 | 36 | 999.7 |
| 20260503193427 | 16 | 309 | 3.2 | 4.8 | 0.00 | 0.03 | 0.03 | 34 | 999.6 |
| 20260503192923 | 16 | 252 | 1.6 | 3.2 | 0.00 | 0.03 | 0.03 | 34 | 999.6 |
| 20260503192420 | 17 | 351 | 3.2 | 3.2 | 0.00 | 0.03 | 0.03 | 35 | 999.7 |
| 20260503191910 | 16 | 281 | 4.8 | 4.8 | 0.00 | 0.03 | 0.03 | 36 | 999.4 |
| 20260503191408 | 16 | 225 | 0.0 | 1.6 | 0.00 | 0.03 | 0.03 | 34 | 999.6 |
| 20260503190904 | 17 | 293 | 1.6 | 1.6 | 0.00 | 0.03 | 0.03 | 37 | 999.8 |
| 20260503190402 | 16 | 274 | 0.0 | 0.0 | 0.00 | 0.03 | 0.03 | 37 | 999.8 |
| 20260503185858 | 16 | 28 | 6.4 | 9.7 | 0.00 | 0.03 | 0.03 | 33 | 999.9 |
| 20260503185355 | 16 | 202 | 9.7 | 14.5 | 0.00 | 0.03 | 0.03 | 32 | 1000.1 |
| 20260503184854 | 16 | 190 | 3.2 | 4.8 | 0.00 | 0.03 | 0.03 | 33 | 999.8 |
| 20260503184350 | 16 | 229 | 4.8 | 4.8 | 0.00 | 0.03 | 0.03 | 35 | 999.9 |
| 20260503183846 | 16 | 323 | 4.8 | 6.4 | 0.00 | 0.03 | 0.03 | 33 | 1000.3 |
| 20260503183344 | 16 | 255 | 3.2 | 3.2 | 0.00 | 0.03 | 0.03 | 36 | 1000.1 |
| 20260503182841 | 16 | 260 | 1.6 | 3.2 | 0.00 | 0.03 | 0.03 | 34 | 1000.3 |
| 20260503182340 | 16 | 228 | 3.2 | 3.2 | 0.00 | 0.03 | 0.03 | 34 | 1000.3 |
| 20260503181837 | 15 | 238 | 3.2 | 3.2 | 0.00 | 0.03 | 0.03 | 34 | 1000.3 |
| 20260503181334 | 15 | 16 | 8.0 | 11.3 | 0.00 | 0.03 | 0.03 | 34 | 1000.3 |
| 20260503180830 | 16 | 37 | 0.0 | 1.6 | 0.00 | 0.03 | 0.03 | 38 | 1000.4 |
| 20260503180328 | 15 | 239 | 3.2 | 4.8 | 0.00 | 0.03 | 0.03 | 36 | 1000.3 |
| 20260503175824 | 15 | 46 | 0.0 | 0.0 | 0.00 | 0.03 | 0.03 | 36 | 1000.5 |
| 20260503175323 | 15 | 359 | 3.2 | 4.8 | 0.00 | 0.03 | 0.03 | 37 | 1000.5 |
| 20260503174818 | 15 | 246 | 3.2 | 3.2 | 0.00 | 0.03 | 0.03 | 34 | 1000.5 |
| 20260503174316 | 15 | 11 | 11.3 | 16.1 | 0.00 | 0.03 | 0.03 | 33 | 1000.6 |
| 20260503173817 | 15 | 237 | 4.8 | 6.4 | 0.00 | 0.03 | 0.03 | 36 | 1000.5 |
| 20260503173313 | 15 | 317 | 0.0 | 1.6 | 0.00 | 0.03 | 0.03 | 43 | 1000.6 |
| 20260503172810 | 15 | 243 | 9.7 | 16.1 | 0.00 | 0.03 | 0.03 | 35 | 1000.9 |
| 20260503172308 | 15 | 336 | 0.0 | 1.6 | 0.00 | 0.03 | 0.03 | 35 | 1000.7 |
| 20260503171803 | 15 | 234 | 3.2 | 4.8 | 0.00 | 0.03 | 0.03 | 35 | 1000.8 |
| 20260503171300 | 15 | 75 | 3.2 | 4.8 | 0.00 | 0.03 | 0.03 | 37 | 1000.9 |
| 20260503170758 | 15 | 191 | 3.2 | 4.8 | 0.00 | 0.03 | 0.03 | 37 | 1000.9 |
| 20260503170254 | 15 | 0 | 4.8 | 9.7 | 0.00 | 0.03 | 0.03 | 36 | 1000.7 |
| 20260503160217 | 13 | 41 | 1.6 | 1.6 | 0.00 | 0.03 | 0.03 | 42 | 1000.8 |
| 20260503150647 | 11 | 294 | 1.6 | 3.2 | 0.00 | 0.03 | 0.03 | 47 | 1000.5 |
| 20260503150143 | 11 | 137 | 1.6 | 1.6 | 0.00 | 0.03 | 0.03 | 48 | 1000.5 |
| 20260503140107 | 10 | 329 | 0.0 | 1.6 | 0.00 | 0.03 | 0.03 | 63 | 1000.5 |
| 20260503131036 | 7 | 241 | 3.2 | 3.2 | 0.00 | 0.03 | 0.03 | 77 | 1000.2 |
| 20260503130533 | 7 | 200 | 0.0 | 1.6 | 0.00 | 0.03 | 0.03 | 79 | 1000.3 |
| 20260503110424 | 0 | 291 | 0.0 | 0.0 | 0.00 | 0.00 | 0.00 | 99 | 999.2 |
| 20260503090304 | 1 | 343 | 0.0 | 0.0 | 0.00 | 0.00 | 0.00 | 99 | 999.9 |
| 20260503081236 | 2 | 327 | 0.0 | 0.0 | 0.00 | 0.00 | 0.00 | 99 | 999.9 |
| 20260503080732 | 2 | 327 | 0.0 | 0.0 | 0.00 | 0.00 | 0.00 | 99 | 1000.1 |
| 20260503080229 | 2 | 327 | 0.0 | 0.0 | 0.00 | 0.00 | 0.00 | 99 | 1000.1 |
| 20260503072706 | 3 | 276 | 0.0 | 0.0 | 0.00 | 0.00 | 0.00 | 99 | 1000.4 |
| 20260503072203 | 4 | 275 | 0.0 | 0.0 | 0.00 | 0.00 | 0.00 | 99 | 1000.7 |
| 20260503071659 | 5 | 276 | 0.0 | 0.0 | 0.00 | 0.00 | 0.00 | 99 | 1000.6 |
| 20260503071156 | 5 | 275 | 0.0 | 0.0 | 0.00 | 0.00 | 0.00 | 99 | 1000.6 |
| 20260503070653 | 5 | 276 | 0.0 | 0.0 | 0.00 | 0.00 | 0.00 | 99 | 1000.5 |
| 20260503070151 | 5 | 277 | 0.0 | 0.0 | 0.00 | 0.00 | 0.00 | 99 | 1000.6 |
| 20260503060115 | 7 | 307 | 0.0 | 0.0 | 0.00 | 0.00 | 0.00 | 97 | 1001.2 |
| 20260503055107 | 7 | 341 | 0.0 | 0.0 | 0.00 | 0.00 | 0.00 | 97 | 1001.1 |
| 20260503054602 | 7 | 302 | 0.0 | 0.0 | 0.00 | 0.00 | 0.00 | 97 | 1001.2 |
| 20260503054100 | 7 | 278 | 0.0 | 0.0 | 0.00 | 0.00 | 0.00 | 97 | 1001.2 |
| 20260503053558 | 7 | 274 | 0.0 | 0.0 | 0.00 | 0.00 | 0.00 | 96 | 1001.2 |
| 20260503053055 | 7 | 274 | 0.0 | 0.0 | 0.00 | 0.00 | 0.00 | 97 | 1001.2 |
| 20260503052552 | 7 | 274 | 0.0 | 0.0 | 0.00 | 0.00 | 0.00 | 97 | 1001.4 |
| 20260503052048 | 7 | 262 | 0.0 | 0.0 | 0.00 | 0.00 | 0.00 | 96 | 1001.6 |
| 20260503051544 | 7 | 262 | 0.0 | 0.0 | 0.00 | 0.00 | 0.00 | 96 | 1001.4 |
| 20260503051042 | 8 | 150 | 0.0 | 0.0 | 0.00 | 0.00 | 0.00 | 95 | 1001.3 |
| 20260503050537 | 8 | 16 | 0.0 | 0.0 | 0.00 | 0.00 | 0.00 | 94 | 1001.6 |
| 20260503050035 | 7 | 351 | 1.6 | 1.6 | 0.00 | 0.00 | 0.00 | 96 | 1001.6 |
| 20260503045532 | 8 | 143 | 0.0 | 0.0 | 0.00 | 0.03 | 0.03 | 96 | 1001.3 |
| 20260503045029 | 8 | 155 | 0.0 | 0.0 | 0.00 | 0.03 | 0.03 | 94 | 1001.6 |
| 20260503044526 | 7 | 246 | 3.2 | 3.2 | 0.00 | 0.03 | 0.03 | 98 | 1001.8 |
| 20260503044024 | 7 | 141 | 0.0 | 0.0 | 0.00 | 0.03 | 0.03 | 98 | 1001.3 |
| 20260503043519 | 7 | 229 | 0.0 | 0.0 | 0.00 | 0.03 | 0.03 | 97 | 1001.5 |
| 20260503043016 | 7 | 324 | 0.0 | 0.0 | 0.00 | 0.03 | 0.03 | 97 | 1001.5 |
| 20260503042513 | 7 | 112 | 0.0 | 0.0 | 0.00 | 0.03 | 0.03 | 97 | 1001.6 |
| 20260503042009 | 7 | 77 | 0.0 | 0.0 | 0.00 | 0.03 | 0.03 | 97 | 1001.8 |
| 20260503041507 | 8 | 72 | 0.0 | 0.0 | 0.00 | 0.03 | 0.03 | 97 | 1001.8 |
| 20260503041004 | 8 | 72 | 0.0 | 0.0 | 0.00 | 0.03 | 0.03 | 96 | 1001.7 |
| 20260503040501 | 8 | 72 | 0.0 | 0.0 | 0.00 | 0.03 | 0.03 | 96 | 1001.6 |
| 20260503035958 | 8 | 82 | 0.0 | 0.0 | 0.00 | 0.03 | 0.03 | 96 | 1001.8 |
| 20260503035455 | 8 | 83 | 0.0 | 0.0 | 0.00 | 0.03 | 0.03 | 96 | 1002.0 |
| 20260503034953 | 8 | 83 | 0.0 | 0.0 | 0.00 | 0.03 | 0.03 | 96 | 1002.1 |
| 20260503034450 | 8 | 83 | 0.0 | 0.0 | 0.00 | 0.03 | 0.03 | 96 | 1001.8 |
| 20260503033947 | 8 | 81 | 0.0 | 0.0 | 0.00 | 0.03 | 0.03 | 97 | 1002.0 |
| 20260503033444 | 8 | 81 | 0.0 | 0.0 | 0.00 | 0.03 | 0.03 | 97 | 1002.0 |
| 20260503032942 | 8 | 81 | 0.0 | 0.0 | 0.00 | 0.03 | 0.03 | 97 | 1002.1 |
| 20260503032440 | 8 | 80 | 0.0 | 0.0 | 0.00 | 0.03 | 0.03 | 97 | 1002.2 |
| 20260503031937 | 8 | 80 | 0.0 | 0.0 | 0.00 | 0.03 | 0.03 | 97 | 1002.2 |
| 20260503031435 | 8 | 81 | 0.0 | 0.0 | 0.00 | 0.03 | 0.03 | 96 | 1002.2 |
| 20260503030932 | 8 | 81 | 0.0 | 0.0 | 0.00 | 0.03 | 0.03 | 96 | 1002.3 |
| 20260503030428 | 8 | 81 | 0.0 | 0.0 | 0.00 | 0.03 | 0.03 | 96 | 1002.6 |
| 20260503025925 | 8 | 81 | 0.0 | 0.0 | 0.00 | 0.03 | 0.03 | 96 | 1002.4 |
| 20260503025422 | 8 | 81 | 0.0 | 0.0 | 0.00 | 0.03 | 0.03 | 96 | 1002.4 |
| 20260503024920 | 8 | 81 | 0.0 | 0.0 | 0.00 | 0.03 | 0.03 | 96 | 1002.7 |
| 20260503024416 | 8 | 81 | 0.0 | 0.0 | 0.00 | 0.03 | 0.03 | 95 | 1002.7 |
| 20260503023914 | 8 | 80 | 0.0 | 0.0 | 0.00 | 0.03 | 0.03 | 95 | 1002.8 |
| 20260503023410 | 8 | 88 | 0.0 | 0.0 | 0.00 | 0.03 | 0.03 | 96 | 1002.8 |
| 20260503022907 | 8 | 88 | 0.0 | 0.0 | 0.00 | 0.03 | 0.03 | 96 | 1002.7 |
| 20260503022402 | 8 | 88 | 0.0 | 0.0 | 0.00 | 0.03 | 0.03 | 98 | 1003.2 |
| 20260503021858 | 8 | 75 | 0.0 | 0.0 | 0.00 | 0.03 | 0.03 | 98 | 1003.1 |
| 20260503021355 | 8 | 66 | 0.0 | 0.0 | 0.00 | 0.03 | 0.03 | 97 | 1003.1 |
| 20260503020852 | 8 | 65 | 0.0 | 0.0 | 0.00 | 0.03 | 0.03 | 97 | 1003.0 |
| 20260503020350 | 8 | 64 | 0.0 | 0.0 | 0.00 | 0.03 | 0.03 | 96 | 1003.1 |
| 20260503015846 | 8 | 64 | 0.0 | 0.0 | 0.00 | 0.03 | 0.03 | 96 | 1003.4 |
| 20260503015343 | 8 | 15 | 0.0 | 0.0 | 0.00 | 0.03 | 0.03 | 93 | 1003.5 |
| 20260503014839 | 9 | 33 | 0.0 | 0.0 | 0.00 | 0.03 | 0.03 | 94 | 1003.3 |
| 20260503014337 | 9 | 65 | 0.0 | 0.0 | 0.00 | 0.03 | 0.03 | 94 | 1003.4 |
| 20260503013834 | 9 | 65 | 0.0 | 0.0 | 0.00 | 0.03 | 0.03 | 93 | 1003.5 |
| 20260503013331 | 9 | 65 | 0.0 | 0.0 | 0.00 | 0.03 | 0.03 | 92 | 1003.6 |
| 20260503012828 | 9 | 65 | 0.0 | 0.0 | 0.00 | 0.03 | 0.03 | 91 | 1003.4 |